TimePDT,TemperatureF,Dew PointF,Humidity,Sea Level PressureIn,VisibilityMPH,Wind Direction,Wind SpeedMPH,Gust SpeedMPH,PrecipitationIn,Events,Conditions,WindDirDegrees,DateUTC
12:51 AM,57.9,54.0,87,30.03,10.0,Calm,Calm,-,N/A,,Clear,0,2012-10-06 07:51:00
1:51 AM,55.9,52.0,87,30.03,10.0,Calm,Calm,-,N/A,,Clear,0,2012-10-06 08:51:00
2:51 AM,55.0,51.1,86,30.02,10.0,South,3.5,-,N/A,,Clear,170,2012-10-06 09:51:00
3:51 AM,54.0,51.1,90,30.00,10.0,Calm,Calm,-,N/A,,Clear,0,2012-10-06 10:51:00
4:51 AM,53.1,48.9,86,30.00,10.0,Calm,Calm,-,N/A,,Clear,0,2012-10-06 11:51:00
5:51 AM,53.1,50.0,89,30.01,10.0,SSE,3.5,-,N/A,,Clear,150,2012-10-06 12:51:00
6:51 AM,54.0,51.1,90,30.01,10.0,Calm,Calm,-,N/A,,Clear,0,2012-10-06 13:51:00
7:51 AM,55.0,52.0,89,30.02,9.0,SSE,3.5,-,N/A,,Clear,160,2012-10-06 14:51:00
8:51 AM,64.0,55.0,73,30.02,10.0,Calm,Calm,-,N/A,,Clear,0,2012-10-06 15:51:00
9:51 AM,66.9,54.0,63,30.02,10.0,West,5.8,-,N/A,,Clear,280,2012-10-06 16:51:00
10:51 AM,72.0,54.0,53,30.00,10.0,Variable,4.6,-,N/A,,Clear,0,2012-10-06 17:51:00
11:51 AM,73.9,55.9,53,29.98,10.0,NW,8.1,-,N/A,,Clear,320,2012-10-06 18:51:00
12:51 PM,73.0,55.9,55,29.97,10.0,NW,16.1,-,N/A,,Clear,320,2012-10-06 19:51:00
1:51 PM,73.0,57.0,57,29.96,10.0,NW,20.7,-,N/A,,Clear,310,2012-10-06 20:51:00
2:51 PM,72.0,55.9,57,29.94,10.0,WNW,13.8,23.0,N/A,,Clear,300,2012-10-06 21:51:00
3:51 PM,70.0,57.0,63,29.94,10.0,WNW,17.3,-,N/A,,Clear,300,2012-10-06 22:51:00
4:51 PM,69.1,55.0,61,29.92,10.0,WNW,18.4,-,N/A,,Clear,300,2012-10-06 23:51:00
5:51 PM,66.9,54.0,63,29.92,10.0,WNW,16.1,-,N/A,,Clear,290,2012-10-07 00:51:00
6:51 PM,63.0,53.1,70,29.93,10.0,WNW,13.8,28.8,N/A,,Clear,300,2012-10-07 01:51:00
7:51 PM,62.1,53.1,72,29.94,10.0,WNW,10.4,-,N/A,,Clear,290,2012-10-07 02:51:00
8:51 PM,61.0,53.1,75,29.94,10.0,West,11.5,-,N/A,,Clear,280,2012-10-07 03:51:00
9:51 PM,60.1,54.0,80,29.94,10.0,WNW,9.2,-,N/A,,Clear,290,2012-10-07 04:51:00
10:51 PM,59.0,54.0,83,29.96,10.0,West,9.2,-,N/A,,Clear,280,2012-10-07 05:51:00
11:51 PM,57.9,54.0,87,29.95,10.0,NW,4.6,-,N/A,,Clear,310,2012-10-07 06:51:00